SINOD-D 3

Last updated on Thu Jul 09 2026 00:03:53 GMT+0000 (Coordinated Universal Time)

1 40977U 15058P 26189.32564808 .00002066 00000+0 18159-3 0 9998 2 40977 64.7708 209.8037 0120551 49.7948 311.3641 14.94138888117917
UTC large
Height (km)
Speed (km/s)
/
Latitude / Longitude
Inclination (degrees)
Orbital Period (minutes)
Azimuth
Elevation
Range (km)
Doppler Factor

Next 0 passes for location: London (51.5072 / 0.1276)

No passes found over London.
SINOD-D 3